Time,TemperatureF,DewpointF,PressureIn,WindDirection,WindDirectionDegrees,WindSpeedMPH,WindSpeedGustMPH,Humidity,HourlyPrecipIn,Conditions,Clouds,dailyrainin,SolarRadiationWatts/m^2,SoftwareType,DateUTC
2013-02-16 00:01:00,55.0,54.0,-100.00,ESE,111,3.0,11.0,96,0.00,,,0.00,0.000000,,2013-02-16 10:01:00,
2013-02-16 00:11:00,55.0,54.0,-100.00,ESE,111,3.0,11.0,96,0.00,,,0.00,0.000000,,2013-02-16 10:11:00,
2013-02-16 00:21:00,55.0,54.0,-100.00,ESE,111,3.0,11.0,96,0.00,,,0.00,0.000000,,2013-02-16 10:21:00,
2013-02-16 00:22:00,54.0,53.0,-100.00,ESE,118,2.0,11.0,96,0.00,,,0.00,0.000000,,2013-02-16 10:22:00,
2013-02-16 00:42:00,54.0,53.0,-100.00,ESE,118,2.0,11.0,96,0.00,,,0.00,0.000000,,2013-02-16 10:42:00,
2013-02-16 00:52:00,54.0,53.0,-100.00,ESE,118,2.0,11.0,96,0.00,,,0.00,0.000000,,2013-02-16 10:52:00,
2013-02-16 01:02:00,54.0,53.0,-100.00,ESE,118,2.0,11.0,96,0.00,,,0.00,0.000000,,2013-02-16 11:02:00,
2013-02-16 01:11:00,54.0,53.0,-100.00,ESE,118,2.0,11.0,96,0.00,,,0.00,0.000000,,2013-02-16 11:11:00,
2013-02-16 01:22:00,54.0,53.0,-100.00,East,80,2.0,9.0,97,0.00,,,0.00,0.000000,,2013-02-16 11:22:00,
2013-02-16 01:42:00,54.0,53.0,-100.00,East,80,2.0,9.0,97,0.00,,,0.00,0.000000,,2013-02-16 11:42:00,
2013-02-16 01:52:00,54.0,53.0,-100.00,East,80,2.0,9.0,97,0.00,,,0.00,0.000000,,2013-02-16 11:52:00,
2013-02-16 02:01:00,54.0,53.0,-100.00,East,80,2.0,9.0,97,0.00,,,0.00,0.000000,,2013-02-16 12:01:00,
2013-02-16 02:12:00,54.0,53.0,-100.00,East,80,2.0,9.0,97,0.00,,,0.00,0.000000,,2013-02-16 12:12:00,
2013-02-16 02:42:00,54.0,53.0,-100.00,East,90,3.0,15.0,97,0.00,,,-99.99,0.000000,,2013-02-16 12:42:00,
2013-02-16 02:52:00,54.0,53.0,-100.00,East,90,3.0,15.0,97,0.00,,,-99.99,0.000000,,2013-02-16 12:52:00,
2013-02-16 03:01:00,54.0,53.0,-100.00,East,90,3.0,15.0,97,0.00,,,-99.99,0.000000,,2013-02-16 13:01:00,
2013-02-16 03:11:00,54.0,53.0,-100.00,East,90,3.0,15.0,97,0.00,,,-99.99,0.000000,,2013-02-16 13:11:00,
2013-02-16 03:21:00,54.0,53.0,-100.00,East,90,3.0,15.0,97,0.00,,,-99.99,0.000000,,2013-02-16 13:21:00,
2013-02-16 04:42:00,54.0,53.0,-100.00,East,88,3.0,13.0,97,-99.99,,,0.00,0.000000,,2013-02-16 14:42:00,
2013-02-16 04:52:00,54.0,53.0,-100.00,East,88,3.0,13.0,97,-99.99,,,0.00,0.000000,,2013-02-16 14:52:00,
2013-02-16 05:01:00,54.0,53.0,-100.00,East,88,3.0,13.0,97,-99.99,,,0.00,0.000000,,2013-02-16 15:01:00,
2013-02-16 05:11:00,54.0,53.0,-100.00,East,88,3.0,13.0,97,-99.99,,,0.00,0.000000,,2013-02-16 15:11:00,
2013-02-16 05:21:00,54.0,53.0,-100.00,East,88,3.0,13.0,97,-99.99,,,0.00,0.000000,,2013-02-16 15:21:00,
2013-02-16 05:42:00,53.0,52.0,-100.00,East,88,4.0,18.0,96,0.00,,,0.00,0.000000,,2013-02-16 15:42:00,
2013-02-16 05:52:00,53.0,52.0,-100.00,East,88,4.0,18.0,96,0.00,,,0.00,0.000000,,2013-02-16 15:52:00,
2013-02-16 06:01:00,53.0,52.0,-100.00,East,88,4.0,18.0,96,0.00,,,0.00,0.000000,,2013-02-16 16:01:00,
2013-02-16 06:11:00,53.0,52.0,-100.00,East,88,4.0,18.0,96,0.00,,,0.00,0.000000,,2013-02-16 16:11:00,
2013-02-16 06:21:00,53.0,52.0,-100.00,East,88,4.0,18.0,96,0.00,,,0.00,0.000000,,2013-02-16 16:21:00,
2013-02-16 06:42:00,53.0,52.0,-100.00,East,84,4.0,15.0,96,0.00,,,0.00,0.000000,,2013-02-16 16:42:00,
2013-02-16 06:52:00,53.0,52.0,-100.00,East,84,4.0,15.0,96,0.00,,,0.00,0.000000,,2013-02-16 16:52:00,
2013-02-16 07:01:00,53.0,52.0,-100.00,East,84,4.0,15.0,96,0.00,,,0.00,0.000000,,2013-02-16 17:01:00,
2013-02-16 07:11:00,53.0,52.0,-100.00,East,84,4.0,15.0,96,0.00,,,0.00,0.000000,,2013-02-16 17:11:00,
2013-02-16 07:21:00,53.0,52.0,-100.00,East,84,4.0,15.0,96,0.00,,,0.00,0.000000,,2013-02-16 17:21:00,
2013-02-16 07:42:00,53.0,52.0,-100.00,East,86,4.0,19.0,97,0.00,,,0.00,0.000000,,2013-02-16 17:42:00,
2013-02-16 07:52:00,53.0,52.0,-100.00,East,86,4.0,19.0,97,0.00,,,0.00,0.000000,,2013-02-16 17:52:00,
2013-02-16 08:02:00,53.0,52.0,-100.00,East,86,4.0,19.0,97,0.00,,,0.00,0.000000,,2013-02-16 18:02:00,
2013-02-16 08:11:00,53.0,52.0,-100.00,East,86,4.0,19.0,97,0.00,,,0.00,0.000000,,2013-02-16 18:11:00,
2013-02-16 08:21:00,53.0,52.0,-100.00,East,86,4.0,19.0,97,0.00,,,0.00,0.000000,,2013-02-16 18:21:00,
2013-02-16 08:42:00,53.0,52.0,-100.00,East,87,4.0,24.0,97,0.00,,,0.00,11.000000,,2013-02-16 18:42:00,
2013-02-16 08:52:00,53.0,52.0,-100.00,East,87,4.0,24.0,97,0.00,,,0.00,11.000000,,2013-02-16 18:52:00,
2013-02-16 09:02:00,53.0,52.0,-100.00,East,87,4.0,24.0,97,0.00,,,0.00,11.000000,,2013-02-16 19:02:00,
2013-02-16 09:11:00,53.0,52.0,-100.00,East,87,4.0,24.0,97,0.00,,,0.00,11.000000,,2013-02-16 19:11:00,
2013-02-16 09:21:00,53.0,52.0,-100.00,East,87,4.0,24.0,97,0.00,,,0.00,11.000000,,2013-02-16 19:21:00,
2013-02-16 09:42:00,53.0,52.0,-100.00,East,87,4.0,15.0,97,0.00,,,0.00,93.000000,,2013-02-16 19:42:00,
2013-02-16 09:52:00,53.0,52.0,-100.00,East,87,4.0,15.0,97,0.00,,,0.00,93.000000,,2013-02-16 19:52:00,
2013-02-16 10:01:00,53.0,52.0,-100.00,East,87,4.0,15.0,97,0.00,,,0.00,93.000000,,2013-02-16 20:01:00,
2013-02-16 10:11:00,53.0,52.0,-100.00,East,87,4.0,15.0,97,0.00,,,0.00,93.000000,,2013-02-16 20:11:00,
2013-02-16 10:21:00,53.0,52.0,-100.00,East,87,4.0,15.0,97,0.00,,,0.00,93.000000,,2013-02-16 20:21:00,
2013-02-16 10:42:00,53.0,50.0,-100.00,East,88,4.0,20.0,89,0.00,,,-99.99,199.000000,,2013-02-16 20:42:00,
2013-02-16 10:52:00,53.0,50.0,-100.00,East,88,4.0,20.0,89,0.00,,,-99.99,199.000000,,2013-02-16 20:52:00,
2013-02-16 11:02:00,53.0,50.0,-100.00,East,88,4.0,20.0,89,0.00,,,-99.99,199.000000,,2013-02-16 21:02:00,
2013-02-16 11:11:00,53.0,50.0,-100.00,East,88,4.0,20.0,89,0.00,,,-99.99,199.000000,,2013-02-16 21:11:00,
2013-02-16 11:21:00,53.0,50.0,-100.00,East,88,4.0,20.0,89,0.00,,,-99.99,199.000000,,2013-02-16 21:21:00,
2013-02-16 11:42:00,55.0,50.0,-100.00,East,88,4.0,16.0,82,0.00,,,0.00,479.000000,,2013-02-16 21:42:00,
2013-02-16 11:52:00,55.0,50.0,-100.00,East,88,4.0,16.0,82,0.00,,,0.00,479.000000,,2013-02-16 21:52:00,
2013-02-16 12:01:00,55.0,50.0,-100.00,East,88,4.0,16.0,82,0.00,,,0.00,479.000000,,2013-02-16 22:01:00,
2013-02-16 12:11:00,55.0,50.0,-100.00,East,88,4.0,16.0,82,0.00,,,0.00,479.000000,,2013-02-16 22:11:00,
2013-02-16 12:21:00,55.0,50.0,-100.00,East,88,4.0,16.0,82,0.00,,,0.00,479.000000,,2013-02-16 22:21:00,
2013-02-16 12:42:00,55.0,53.0,-100.00,East,84,4.0,16.0,94,0.00,,,0.00,326.000000,,2013-02-16 22:42:00,
2013-02-16 12:52:00,55.0,53.0,-100.00,East,84,4.0,16.0,94,0.00,,,0.00,326.000000,,2013-02-16 22:52:00,
2013-02-16 13:02:00,55.0,53.0,-100.00,East,84,4.0,16.0,94,0.00,,,0.00,326.000000,,2013-02-16 23:02:00,
2013-02-16 13:11:00,55.0,53.0,-100.00,East,84,4.0,16.0,94,0.00,,,0.00,326.000000,,2013-02-16 23:11:00,
2013-02-16 13:21:00,55.0,53.0,-100.00,East,84,4.0,16.0,94,0.00,,,0.00,326.000000,,2013-02-16 23:21:00,
2013-02-16 13:42:00,56.0,52.0,-100.00,East,86,4.0,15.0,86,0.00,,,0.00,469.000000,,2013-02-16 23:42:00,
2013-02-16 13:52:00,56.0,52.0,-100.00,East,86,4.0,15.0,86,0.00,,,0.00,469.000000,,2013-02-16 23:52:00,
2013-02-16 14:02:00,56.0,52.0,-100.00,East,86,4.0,15.0,86,0.00,,,0.00,469.000000,,2013-02-17 00:02:00,
2013-02-16 14:11:00,56.0,52.0,-100.00,East,86,4.0,15.0,86,0.00,,,0.00,469.000000,,2013-02-17 00:11:00,
2013-02-16 14:21:00,56.0,52.0,-100.00,East,86,4.0,15.0,86,0.00,,,0.00,469.000000,,2013-02-17 00:21:00,
2013-02-16 14:42:00,55.0,53.0,-100.00,East,90,4.0,17.0,94,0.00,,,0.00,303.000000,,2013-02-17 00:42:00,
2013-02-16 14:52:00,55.0,53.0,-100.00,East,90,4.0,17.0,94,0.00,,,0.00,303.000000,,2013-02-17 00:52:00,
2013-02-16 15:01:00,55.0,53.0,-100.00,East,90,4.0,17.0,94,0.00,,,0.00,303.000000,,2013-02-17 01:01:00,
2013-02-16 15:11:00,55.0,53.0,-100.00,East,90,4.0,17.0,94,0.00,,,0.00,303.000000,,2013-02-17 01:11:00,
2013-02-16 15:21:00,55.0,53.0,-100.00,East,90,4.0,17.0,94,0.00,,,0.00,303.000000,,2013-02-17 01:21:00,
2013-02-16 15:42:00,55.0,54.0,-100.00,East,81,4.0,14.0,95,0.00,,,0.00,292.000000,,2013-02-17 01:42:00,
2013-02-16 15:52:00,55.0,54.0,-100.00,East,81,4.0,14.0,95,0.00,,,0.00,292.000000,,2013-02-17 01:52:00,
2013-02-16 16:01:00,55.0,54.0,-100.00,East,81,4.0,14.0,95,0.00,,,0.00,292.000000,,2013-02-17 02:01:00,
2013-02-16 16:11:00,55.0,54.0,-100.00,East,81,4.0,14.0,95,0.00,,,0.00,292.000000,,2013-02-17 02:11:00,
2013-02-16 16:21:00,55.0,54.0,-100.00,East,81,4.0,14.0,95,0.00,,,0.00,292.000000,,2013-02-17 02:21:00,
2013-02-16 16:42:00,54.0,53.0,-100.00,East,86,4.0,17.0,95,0.00,,,0.00,204.000000,,2013-02-17 02:42:00,
2013-02-16 16:52:00,54.0,53.0,-100.00,East,86,4.0,17.0,95,0.00,,,0.00,204.000000,,2013-02-17 02:52:00,
2013-02-16 17:01:00,54.0,53.0,-100.00,East,86,4.0,17.0,95,0.00,,,0.00,204.000000,,2013-02-17 03:01:00,
2013-02-16 17:11:00,54.0,53.0,-100.00,East,86,4.0,17.0,95,0.00,,,0.00,204.000000,,2013-02-17 03:11:00,
2013-02-16 17:21:00,54.0,53.0,-100.00,East,86,4.0,17.0,95,0.00,,,0.00,204.000000,,2013-02-17 03:21:00,
2013-02-16 17:42:00,54.0,52.0,-100.00,East,82,4.0,18.0,93,0.00,,,0.00,153.000000,,2013-02-17 03:42:00,
2013-02-16 17:52:00,54.0,52.0,-100.00,East,82,4.0,18.0,93,0.00,,,0.00,153.000000,,2013-02-17 03:52:00,
2013-02-16 18:01:00,54.0,52.0,-100.00,East,82,4.0,18.0,93,0.00,,,0.00,153.000000,,2013-02-17 04:01:00,
2013-02-16 18:11:00,54.0,52.0,-100.00,East,82,4.0,18.0,93,0.00,,,0.00,153.000000,,2013-02-17 04:11:00,
2013-02-16 18:21:00,54.0,52.0,-100.00,East,82,4.0,18.0,93,0.00,,,0.00,153.000000,,2013-02-17 04:21:00,
2013-02-16 18:42:00,53.0,51.0,-100.00,East,81,4.0,20.0,93,0.00,,,0.00,72.000000,,2013-02-17 04:42:00,
2013-02-16 18:52:00,53.0,51.0,-100.00,East,81,4.0,20.0,93,0.00,,,0.00,72.000000,,2013-02-17 04:52:00,
2013-02-16 19:01:00,53.0,51.0,-100.00,East,81,4.0,20.0,93,0.00,,,0.00,72.000000,,2013-02-17 05:01:00,
2013-02-16 19:11:00,53.0,51.0,-100.00,East,81,4.0,20.0,93,0.00,,,0.00,72.000000,,2013-02-17 05:11:00,
2013-02-16 19:21:00,53.0,51.0,-100.00,East,81,4.0,20.0,93,0.00,,,0.00,72.000000,,2013-02-17 05:21:00,
2013-02-16 19:42:00,53.0,51.0,-100.00,East,83,4.0,20.0,93,0.00,,,0.00,7.000000,,2013-02-17 05:42:00,
2013-02-16 19:52:00,53.0,51.0,-100.00,East,83,4.0,20.0,93,0.00,,,0.00,7.000000,,2013-02-17 05:52:00,
2013-02-16 20:02:00,53.0,51.0,-100.00,East,83,4.0,20.0,93,0.00,,,0.00,7.000000,,2013-02-17 06:02:00,
2013-02-16 20:11:00,53.0,51.0,-100.00,East,83,4.0,20.0,93,0.00,,,0.00,7.000000,,2013-02-17 06:11:00,
2013-02-16 20:21:00,53.0,51.0,-100.00,East,83,4.0,20.0,93,0.00,,,0.00,7.000000,,2013-02-17 06:21:00,
2013-02-16 20:42:00,52.0,50.0,-100.00,East,88,4.0,20.0,93,0.00,,,0.00,0.000000,,2013-02-17 06:42:00,
2013-02-16 20:52:00,52.0,50.0,-100.00,East,88,4.0,20.0,93,0.00,,,0.00,0.000000,,2013-02-17 06:52:00,
2013-02-16 21:01:00,52.0,50.0,-100.00,East,88,4.0,20.0,93,0.00,,,0.00,0.000000,,2013-02-17 07:01:00,
2013-02-16 21:11:00,52.0,50.0,-100.00,East,88,4.0,20.0,93,0.00,,,0.00,0.000000,,2013-02-17 07:11:00,
2013-02-16 21:21:00,52.0,50.0,-100.00,East,88,4.0,20.0,93,0.00,,,0.00,0.000000,,2013-02-17 07:21:00,
2013-02-16 21:42:00,52.0,50.0,-100.00,East,86,4.0,16.0,93,0.00,,,0.00,0.000000,,2013-02-17 07:42:00,
2013-02-16 21:52:00,52.0,50.0,-100.00,East,86,4.0,16.0,93,0.00,,,0.00,0.000000,,2013-02-17 07:52:00,
2013-02-16 22:01:00,52.0,50.0,-100.00,East,86,4.0,16.0,93,0.00,,,0.00,0.000000,,2013-02-17 08:01:00,
2013-02-16 22:11:00,52.0,50.0,-100.00,East,86,4.0,16.0,93,0.00,,,0.00,0.000000,,2013-02-17 08:11:00,
2013-02-16 22:21:00,52.0,50.0,-100.00,East,86,4.0,16.0,93,0.00,,,0.00,0.000000,,2013-02-17 08:21:00,
2013-02-16 22:42:00,52.0,50.0,-100.00,East,85,4.0,21.0,94,0.00,,,0.00,0.000000,,2013-02-17 08:42:00,
2013-02-16 22:52:00,52.0,50.0,-100.00,East,85,4.0,21.0,94,0.00,,,0.00,0.000000,,2013-02-17 08:52:00,
2013-02-16 23:01:00,52.0,50.0,-100.00,East,85,4.0,21.0,94,0.00,,,0.00,0.000000,,2013-02-17 09:01:00,
2013-02-16 23:11:00,52.0,50.0,-100.00,East,85,4.0,21.0,94,0.00,,,0.00,0.000000,,2013-02-17 09:11:00,
2013-02-16 23:21:00,52.0,50.0,-100.00,East,85,4.0,21.0,94,0.00,,,0.00,0.000000,,2013-02-17 09:21:00,
2013-02-16 23:42:00,52.0,50.0,-100.00,East,82,4.0,17.0,94,0.00,,,0.00,0.000000,,2013-02-17 09:42:00,
2013-02-16 23:52:00,52.0,50.0,-100.00,East,82,4.0,17.0,94,0.00,,,0.00,0.000000,,2013-02-17 09:52:00,